"Sample Date","Sample Time","Sensor Name","Sample Value","Units","Flow Rate","Sample Interval","Sample Volume","Laser Status","Number Channels","Micron Size 0","Counts/Channel 0","Micron Size 1","Counts/Channel 1","Micron Size 2","Counts/Channel 2","Micron Size 3","Counts/Channel 3","Micron Size 4","Counts/Channel 4","Micron Size 5","Counts/Channel 5","Micron Size 6","Counts/Channel 6","Micron Size 7","Counts/Channel 7","Micron Size 8","Counts/Channel 8","Micron Size 9","Counts/Channel 9","Micron Size 10","Counts/Channel 10","Micron Size 11","Counts/Channel 11","Micron Size 12","Counts/Channel 12","Micron Size 13","Counts/Channel 13","Micron Size 14","Counts/Channel 14","Micron Size 15","Counts/Channel 15","Micron Size 16","Counts/Channel 16","Micron Size 17","Counts/Channel 17","Micron Size 18","Counts/Channel 18","Micron Size 19","Counts/Channel 19","Micron Size 20","Counts/Channel 20","Micron Size 21","Counts/Channel 21","Micron Size 22","Counts/Channel 22","Micron Size 23","Counts/Channel 23","Micron Size 24","Counts/Channel 24","Micron Size 25","Counts/Channel 25","Micron Size 26","Counts/Channel 26","Micron Size 27","Counts/Channel 27","Micron Size 28","Counts/Channel 28","Micron Size 29","Counts/Channel 29","Micron Size 30","Counts/Channel 30","Micron Size 31","Counts/Channel 31"
"07/04/06","09:00:01","AMMA06",59604.000,"cc",28312.449,6.00,2831.245,1,6,0.100,33157.000,0.200,21927.000,0.300,3005.000,0.500,916.000,1.000,599.000,5.000,0
"07/04/06","09:00:07","AMMA06",60537.000,"cc",28318.395,6.00,2831.840,1,6,0.100,33860.000,0.200,22069.000,0.300,3062.000,0.500,948.000,1.000,597.000,5.000,1.000
"07/04/06","09:00:13","AMMA06",59573.000,"cc",28328.893,6.00,2832.889,1,6,0.100,33582.000,0.200,21661.000,0.300,2831.000,0.500,896.000,1.000,603.000,5.000,0
"07/04/06","09:00:19","AMMA06",59472.000,"cc",28301.074,6.00,2830.108,1,6,0.100,33337.000,0.200,21760.000,0.300,2815.000,0.500,940.000,1.000,620.000,5.000,0
"07/04/06","09:00:25","AMMA06",59555.000,"cc",28325.697,6.00,2832.570,1,6,0.100,33430.000,0.200,21640.000,0.300,2920.000,0.500,974.000,1.000,589.000,5.000,2.000
"07/04/06","09:00:31","AMMA06",59961.000,"cc",28274.395,6.00,2827.440,1,6,0.100,33761.000,0.200,21877.000,0.300,2849.000,0.500,880.000,1.000,593.000,5.000,1.000
"07/04/06","09:00:37","AMMA06",59878.000,"cc",28290.322,6.00,2829.033,1,6,0.100,33571.000,0.200,21821.000,0.300,2904.000,0.500,968.000,1.000,613.000,5.000,1.000
"07/04/06","09:00:43","AMMA06",59757.000,"cc",28340.156,6.00,2834.016,1,6,0.100,33476.000,0.200,21829.000,0.300,2913.000,0.500,951.000,1.000,586.000,5.000,2.000
"07/04/06","09:00:49","AMMA06",59784.000,"cc",28297.428,6.00,2829.743,1,6,0.100,33381.000,0.200,21940.000,0.300,3026.000,0.500,876.000,1.000,560.000,5.000,1.000
"07/04/06","09:00:55","AMMA06",59594.000,"cc",28257.520,6.00,2825.752,1,6,0.100,33467.000,0.200,21665.000,0.300,2871.000,0.500,985.000,1.000,605.000,5.000,1.000
"07/04/06","09:01:01","AMMA06",60050.000,"cc",28285.945,6.00,2828.595,1,6,0.100,33454.000,0.200,22164.000,0.300,2969.000,0.500,890.000,1.000,573.000,5.000,0
"07/04/06","09:01:07","AMMA06",59967.000,"cc",28346.547,6.00,2834.655,1,6,0.100,33556.000,0.200,21883.000,0.300,2996.000,0.500,934.000,1.000,597.000,5.000,1.000
"07/04/06","09:01:13","AMMA06",59875.000,"cc",28313.736,6.00,2831.374,1,6,0.100,33452.000,0.200,21897.000,0.300,3020.000,0.500,951.000,1.000,554.000,5.000,1.000
"07/04/06","09:01:19","AMMA06",60018.000,"cc",28311.479,6.00,2831.148,1,6,0.100,33291.000,0.200,22311.000,0.300,2873.000,0.500,902.000,1.000,641.000,5.000,0
"07/04/06","09:01:25","AMMA06",60255.000,"cc",28338.535,6.00,2833.854,1,6,0.100,33641.000,0.200,22013.000,0.300,3031.000,0.500,948.000,1.000,622.000,5.000,0
"07/04/06","09:01:31","AMMA06",59876.000,"cc",28320.309,6.00,2832.031,1,6,0.100,33115.000,0.200,22195.000,0.300,3010.000,0.500,955.000,1.000,601.000,5.000,0
"07/04/06","09:01:37","AMMA06",60124.000,"cc",28315.898,6.00,2831.590,1,6,0.100,33437.000,0.200,22107.000,0.300,3037.000,0.500,927.000,1.000,614.000,5.000,2.000
"07/04/06","09:01:43","AMMA06",59654.000,"cc",28337.305,6.00,2833.731,1,6,0.100,33020.000,0.200,22190.000,0.300,2965.000,0.500,892.000,1.000,587.000,5.000,0
"07/04/06","09:01:49","AMMA06",59016.000,"cc",28349.508,6.00,2834.951,1,6,0.100,32624.000,0.200,21934.000,0.300,2940.000,0.500,921.000,1.000,596.000,5.000,1.000
"07/04/06","09:01:55","AMMA06",59610.000,"cc",28246.928,6.00,2824.693,1,6,0.100,33077.000,0.200,22016.000,0.300,2974.000,0.500,975.000,1.000,567.000,5.000,1.000
"07/04/06","09:02:01","AMMA06",59654.000,"cc",28343.070,6.00,2834.307,1,6,0.100,33023.000,0.200,22167.000,0.300,2980.000,0.500,874.000,1.000,609.000,5.000,1.000
"07/04/06","09:02:07","AMMA06",59506.000,"cc",28300.459,6.00,2830.046,1,6,0.100,32726.000,0.200,22132.000,0.300,3072.000,0.500,946.000,1.000,627.000,5.000,3.000
"07/04/06","09:02:13","AMMA06",59413.000,"cc",28331.629,6.00,2833.163,1,6,0.100,32617.000,0.200,22255.000,0.300,3008.000,0.500,955.000,1.000,577.000,5.000,1.000
"07/04/06","09:02:19","AMMA06",59695.000,"cc",28297.856,6.00,2829.786,1,6,0.100,32599.000,0.200,22481.000,0.300,3107.000,0.500,933.000,1.000,575.000,5.000,0
"07/04/06","09:02:25","AMMA06",59639.000,"cc",28279.359,6.00,2827.936,1,6,0.100,32829.000,0.200,22292.000,0.300,3061.000,0.500,887.000,1.000,570.000,5.000,0
"07/04/06","09:02:31","AMMA06",59670.000,"cc",28325.863,6.00,2832.586,1,6,0.100,32580.000,0.200,22468.000,0.300,3076.000,0.500,927.000,1.000,619.000,5.000,0
"07/04/06","09:02:37","AMMA06",59451.000,"cc",28314.912,6.00,2831.492,1,6,0.100,32672.000,0.200,22181.000,0.300,3122.000,0.500,891.000,1.000,585.000,5.000,0
"07/04/06","09:02:43","AMMA06",59905.000,"cc",28357.002,6.00,2835.700,1,6,0.100,32916.000,0.200,22375.000,0.300,3116.000,0.500,945.000,1.000,552.000,5.000,1.000
"07/04/06","09:02:49","AMMA06",59386.000,"cc",28335.856,6.00,2833.586,1,6,0.100,32547.000,0.200,22253.000,0.300,3102.000,0.500,924.000,1.000,560.000,5.000,0
"07/04/06","09:02:55","AMMA06",59586.000,"cc",28335.420,6.00,2833.542,1,6,0.100,32558.000,0.200,22392.000,0.300,3091.000,0.500,944.000,1.000,601.000,5.000,0
"07/04/06","09:03:01","AMMA06",59704.000,"cc",28329.496,6.00,2832.950,1,6,0.100,32565.000,0.200,22603.000,0.300,3086.000,0.500,880.000,1.000,570.000,5.000,0
"07/04/06","09:03:07","AMMA06",60138.000,"cc",28284.986,6.00,2828.499,1,6,0.100,33084.000,0.200,22386.000,0.300,3118.000,0.500,923.000,1.000,625.000,5.000,2.000
"07/04/06","09:03:13","AMMA06",59591.000,"cc",28289.965,6.00,2828.997,1,6,0.100,32599.000,0.200,22321.000,0.300,3168.000,0.500,927.000,1.000,576.000,5.000,0
"07/04/06","09:03:19","AMMA06",60020.000,"cc",28318.455,6.00,2831.846,1,6,0.100,33041.000,0.200,22273.000,0.300,3137.000,0.500,956.000,1.000,612.000,5.000,1.000
"07/04/06","09:03:25","AMMA06",59979.000,"cc",28353.236,6.00,2835.324,1,6,0.100,32926.000,0.200,22439.000,0.300,3013.000,0.500,961.000,1.000,640.000,5.000,0
"07/04/06","09:03:31","AMMA06",60574.000,"cc",28276.699,6.00,2827.670,1,6,0.100,33339.000,0.200,22607.000,0.300,3158.000,0.500,887.000,1.000,581.000,5.000,2.000
"07/04/06","09:03:37","AMMA06",59918.000,"cc",28346.854,6.00,2834.686,1,6,0.100,33025.000,0.200,22211.000,0.300,3169.000,0.500,911.000,1.000,602.000,5.000,0
"07/04/06","09:03:43","AMMA06",60120.000,"cc",28321.143,6.00,2832.115,1,6,0.100,32878.000,0.200,22614.000,0.300,3056.000,0.500,961.000,1.000,610.000,5.000,1.000
"07/04/06","09:03:49","AMMA06",60324.000,"cc",28386.279,6.00,2838.628,1,6,0.100,33156.000,0.200,22492.000,0.300,3115.000,0.500,927.000,1.000,633.000,5.000,1.000
"07/04/06","09:03:55","AMMA06",60105.000,"cc",28323.969,6.00,2832.397,1,6,0.100,33000.000,0.200,22460.000,0.300,2991.000,0.500,958.000,1.000,696.000,5.000,0
"07/04/06","09:04:01","AMMA06",59845.000,"cc",28307.246,6.00,2830.725,1,6,0.100,32837.000,0.200,22442.000,0.300,2942.000,0.500,955.000,1.000,668.000,5.000,1.000
"07/04/06","09:04:07","AMMA06",59800.000,"cc",28308.549,6.00,2830.855,1,6,0.100,32834.000,0.200,22372.000,0.300,3093.000,0.500,889.000,1.000,612.000,5.000,0
"07/04/06","09:04:13","AMMA06",59748.000,"cc",28332.266,6.00,2833.227,1,6,0.100,32948.000,0.200,22190.000,0.300,3119.000,0.500,872.000,1.000,619.000,5.000,0
"07/04/06","09:04:19","AMMA06",59984.000,"cc",28287.379,6.00,2828.738,1,6,0.100,33005.000,0.200,22328.000,0.300,3056.000,0.500,982.000,1.000,612.000,5.000,1.000
"07/04/06","09:04:25","AMMA06",60090.000,"cc",28285.586,6.00,2828.559,1,6,0.100,32964.000,0.200,22356.000,0.300,3110.000,0.500,991.000,1.000,669.000,5.000,0
"07/04/06","09:04:31","AMMA06",60089.000,"cc",28311.031,6.00,2831.103,1,6,0.100,33015.000,0.200,22353.000,0.300,3092.000,0.500,987.000,1.000,642.000,5.000,0
"07/04/06","09:04:37","AMMA06",60279.000,"cc",28340.592,6.00,2834.059,1,6,0.100,33382.000,0.200,22216.000,0.300,3104.000,0.500,985.000,1.000,592.000,5.000,0
"07/04/06","09:04:43","AMMA06",60273.000,"cc",28305.065,6.00,2830.507,1,6,0.100,33084.000,0.200,22623.000,0.300,3027.000,0.500,931.000,1.000,607.000,5.000,1.000
"07/04/06","09:04:49","AMMA06",59950.000,"cc",28285.104,6.00,2828.511,1,6,0.100,32857.000,0.200,22419.000,0.300,3074.000,0.500,964.000,1.000,635.000,5.000,1.000
"07/04/06","09:04:55","AMMA06",60168.000,"cc",28316.356,6.00,2831.636,1,6,0.100,33360.000,0.200,22267.000,0.300,2977.000,0.500,925.000,1.000,638.000,5.000,1.000
"07/04/06","09:05:01","AMMA06",60529.000,"cc",28323.484,6.00,2832.349,1,6,0.100,33404.000,0.200,22443.000,0.300,3089.000,0.500,947.000,1.000,645.000,5.000,1.000
"07/04/06","09:05:07","AMMA06",60843.000,"cc",28373.090,6.00,2837.309,1,6,0.100,33566.000,0.200,22592.000,0.300,3091.000,0.500,978.000,1.000,616.000,5.000,0
"07/04/06","09:05:13","AMMA06",60668.000,"cc",28338.172,6.00,2833.817,1,6,0.100,33486.000,0.200,22359.000,0.300,3137.000,0.500,1001.000,1.000,685.000,5.000,0
"07/04/06","09:05:19","AMMA06",59678.000,"cc",28360.299,6.00,2836.030,1,6,0.100,32952.000,0.200,22113.000,0.300,3073.000,0.500,864.000,1.000,675.000,5.000,1.000
"07/04/06","09:05:25","AMMA06",60035.000,"cc",28275.018,6.00,2827.502,1,6,0.100,33164.000,0.200,22386.000,0.300,3023.000,0.500,860.000,1.000,600.000,5.000,2.000
"07/04/06","09:05:31","AMMA06",59967.000,"cc",28318.164,6.00,2831.817,1,6,0.100,32944.000,0.200,22241.000,0.300,3127.000,0.500,1001.000,1.000,653.000,5.000,1.000
"07/04/06","09:05:37","AMMA06",60018.000,"cc",28288.998,6.00,2828.900,1,6,0.100,33002.000,0.200,22480.000,0.300,3003.000,0.500,907.000,1.000,626.000,5.000,0
"07/04/06","09:05:43","AMMA06",59758.000,"cc",28333.188,6.00,2833.319,1,6,0.100,32853.000,0.200,22234.000,0.300,3114.000,0.500,886.000,1.000,671.000,5.000,0
"07/04/06","09:05:49","AMMA06",59692.000,"cc",28359.512,6.00,2835.951,1,6,0.100,33118.000,0.200,22009.000,0.300,3015.000,0.500,913.000,1.000,637.000,5.000,0
"07/04/06","09:05:55","AMMA06",59660.000,"cc",28327.148,6.00,2832.715,1,6,0.100,32872.000,0.200,22241.000,0.300,3012.000,0.500,903.000,1.000,632.000,5.000,0
"07/04/06","09:06:01","AMMA06",59829.000,"cc",28300.434,6.00,2830.044,1,6,0.100,33005.000,0.200,22212.000,0.300,2983.000,0.500,998.000,1.000,631.000,5.000,0
"07/04/06","09:06:07","AMMA06",59876.000,"cc",28319.223,6.00,2831.922,1,6,0.100,33126.000,0.200,22093.000,0.300,3105.000,0.500,937.000,1.000,614.000,5.000,1.000
"07/04/06","09:06:13","AMMA06",60265.000,"cc",28346.787,6.00,2834.679,1,6,0.100,33573.000,0.200,21982.000,0.300,3122.000,0.500,963.000,1.000,625.000,5.000,0
"07/04/06","09:06:19","AMMA06",60225.000,"cc",28343.748,6.00,2834.375,1,6,0.100,33606.000,0.200,22007.000,0.300,2989.000,0.500,949.000,1.000,674.000,5.000,0
"07/04/06","09:06:25","AMMA06",59739.000,"cc",28294.170,6.00,2829.417,1,6,0.100,33326.000,0.200,21806.000,0.300,2982.000,0.500,940.000,1.000,685.000,5.000,0
"07/04/06","09:06:31","AMMA06",60147.000,"cc",28296.815,6.00,2829.682,1,6,0.100,33541.000,0.200,21981.000,0.300,3016.000,0.500,960.000,1.000,648.000,5.000,1.000
"07/04/06","09:06:37","AMMA06",60313.000,"cc",28243.949,6.00,2824.395,1,6,0.100,33644.000,0.200,22082.000,0.300,2978.000,0.500,959.000,1.000,649.000,5.000,1.000
"07/04/06","09:06:43","AMMA06",60012.000,"cc",28350.565,6.00,2835.057,1,6,0.100,33724.000,0.200,21862.000,0.300,2889.000,0.500,970.000,1.000,566.000,5.000,1.000
"07/04/06","09:06:49","AMMA06",60128.000,"cc",28360.457,6.00,2836.046,1,6,0.100,33642.000,0.200,22018.000,0.300,2893.000,0.500,903.000,1.000,672.000,5.000,0
"07/04/06","09:06:55","AMMA06",60361.000,"cc",28269.967,6.00,2826.997,1,6,0.100,33992.000,0.200,21748.000,0.300,2996.000,0.500,954.000,1.000,670.000,5.000,1.000
"07/04/06","09:07:01","AMMA06",60222.000,"cc",28292.188,6.00,2829.219,1,6,0.100,34029.000,0.200,21716.000,0.300,2941.000,0.500,957.000,1.000,577.000,5.000,2.000
"07/04/06","09:07:07","AMMA06",60270.000,"cc",28310.258,6.00,2831.026,1,6,0.100,33674.000,0.200,22010.000,0.300,3024.000,0.500,953.000,1.000,609.000,5.000,0
"07/04/06","09:07:13","AMMA06",60666.000,"cc",28357.016,6.00,2835.702,1,6,0.100,34128.000,0.200,22121.000,0.300,2852.000,0.500,988.000,1.000,576.000,5.000,1.000
"07/04/06","09:07:19","AMMA06",60068.000,"cc",28291.402,6.00,2829.140,1,6,0.100,34144.000,0.200,21550.000,0.300,2826.000,0.500,951.000,1.000,596.000,5.000,1.000
"07/04/06","09:07:25","AMMA06",60205.000,"cc",28380.084,6.00,2838.009,1,6,0.100,33825.000,0.200,21793.000,0.300,2940.000,0.500,995.000,1.000,651.000,5.000,1.000
"07/04/06","09:07:31","AMMA06",60123.000,"cc",28272.049,6.00,2827.205,1,6,0.100,33675.000,0.200,21855.000,0.300,2950.000,0.500,975.000,1.000,668.000,5.000,0
"07/04/06","09:07:37","AMMA06",60136.000,"cc",28317.725,6.00,2831.773,1,6,0.100,33734.000,0.200,21734.000,0.300,3061.000,0.500,999.000,1.000,606.000,5.000,2.000
"07/04/06","09:07:43","AMMA06",60589.000,"cc",28348.086,6.00,2834.809,1,6,0.100,34049.000,0.200,22021.000,0.300,2959.000,0.500,953.000,1.000,607.000,5.000,0
"07/04/06","09:07:49","AMMA06",60310.000,"cc",28306.922,6.00,2830.692,1,6,0.100,33970.000,0.200,21743.000,0.300,2920.000,0.500,992.000,1.000,685.000,5.000,0
"07/04/06","09:07:55","AMMA06",60520.000,"cc",28283.240,6.00,2828.324,1,6,0.100,34216.000,0.200,21809.000,0.300,2926.000,0.500,949.000,1.000,619.000,5.000,1.000
"07/04/06","09:08:01","AMMA06",60179.000,"cc",28273.125,6.00,2827.313,1,6,0.100,34090.000,0.200,21525.000,0.300,3009.000,0.500,911.000,1.000,644.000,5.000,0
"07/04/06","09:08:07","AMMA06",60097.000,"cc",28319.881,6.00,2831.988,1,6,0.100,33622.000,0.200,21950.000,0.300,2926.000,0.500,969.000,1.000,629.000,5.000,1.000
"07/04/06","09:08:13","AMMA06",60364.000,"cc",28316.127,6.00,2831.613,1,6,0.100,33737.000,0.200,22063.000,0.300,2943.000,0.500,954.000,1.000,667.000,5.000,0
"07/04/06","09:08:19","AMMA06",60282.000,"cc",28327.672,6.00,2832.767,1,6,0.100,34017.000,0.200,21649.000,0.300,2983.000,0.500,982.000,1.000,649.000,5.000,2.000
"07/04/06","09:08:25","AMMA06",59822.000,"cc",28408.299,6.00,2840.830,1,6,0.100,33580.000,0.200,21727.000,0.300,2946.000,0.500,952.000,1.000,617.000,5.000,0
"07/04/06","09:08:31","AMMA06",60318.000,"cc",28277.645,6.00,2827.765,1,6,0.100,33724.000,0.200,21979.000,0.300,3009.000,0.500,974.000,1.000,632.000,5.000,0
"07/04/06","09:08:37","AMMA06",60479.000,"cc",28267.494,6.00,2826.750,1,6,0.100,33826.000,0.200,22093.000,0.300,3000.000,0.500,951.000,1.000,609.000,5.000,0
"07/04/06","09:08:43","AMMA06",60539.000,"cc",28332.924,6.00,2833.293,1,6,0.100,34137.000,0.200,21822.000,0.300,2978.000,0.500,1003.000,1.000,598.000,5.000,1.000
"07/04/06","09:08:49","AMMA06",60471.000,"cc",28329.432,6.00,2832.943,1,6,0.100,33858.000,0.200,21982.000,0.300,3034.000,0.500,972.000,1.000,625.000,5.000,0
"07/04/06","09:08:55","AMMA06",60255.000,"cc",28282.633,6.00,2828.263,1,6,0.100,33812.000,0.200,21899.000,0.300,3001.000,0.500,906.000,1.000,635.000,5.000,2.000
"07/04/06","09:09:01","AMMA06",60536.000,"cc",28317.020,6.00,2831.702,1,6,0.100,33931.000,0.200,22079.000,0.300,2908.000,0.500,968.000,1.000,649.000,5.000,1.000
"07/04/06","09:09:07","AMMA06",60775.000,"cc",28335.004,6.00,2833.501,1,6,0.100,34101.000,0.200,22138.000,0.300,2985.000,0.500,920.000,1.000,629.000,5.000,2.000
"07/04/06","09:09:13","AMMA06",60605.000,"cc",28310.434,6.00,2831.044,1,6,0.100,33831.000,0.200,22204.000,0.300,3007.000,0.500,993.000,1.000,570.000,5.000,0
"07/04/06","09:09:19","AMMA06",60768.000,"cc",28336.658,6.00,2833.666,1,6,0.100,34246.000,0.200,21931.000,0.300,2970.000,0.500,1013.000,1.000,607.000,5.000,1.000
"07/04/06","09:09:25","AMMA06",60676.000,"cc",28317.162,6.00,2831.716,1,6,0.100,33855.000,0.200,22123.000,0.300,3074.000,0.500,1028.000,1.000,595.000,5.000,1.000
"07/04/06","09:09:31","AMMA06",60215.000,"cc",28309.750,6.00,2830.975,1,6,0.100,33442.000,0.200,22265.000,0.300,2948.000,0.500,919.000,1.000,641.000,5.000,0
"07/04/06","09:09:37","AMMA06",60516.000,"cc",28361.482,6.00,2836.148,1,6,0.100,33745.000,0.200,22190.000,0.300,2949.000,0.500,978.000,1.000,652.000,5.000,2.000
"07/04/06","09:09:43","AMMA06",60260.000,"cc",28307.139,6.00,2830.714,1,6,0.100,33488.000,0.200,22082.000,0.300,3061.000,0.500,978.000,1.000,650.000,5.000,1.000
"07/04/06","09:09:49","AMMA06",60507.000,"cc",28304.039,6.00,2830.404,1,6,0.100,33681.000,0.200,22097.000,0.300,3076.000,0.500,980.000,1.000,673.000,5.000,0
"07/04/06","09:09:55","AMMA06",60651.000,"cc",28312.207,6.00,2831.221,1,6,0.100,33751.000,0.200,22240.000,0.300,3065.000,0.500,979.000,1.000,615.000,5.000,1.000
"07/04/06","09:10:01","AMMA06",61220.000,"cc",28353.320,6.00,2835.332,1,6,0.100,34036.000,0.200,22566.000,0.300,3012.000,0.500,993.000,1.000,612.000,5.000,1.000
"07/04/06","09:10:07","AMMA06",60427.000,"cc",28365.922,6.00,2836.592,1,6,0.100,33544.000,0.200,22276.000,0.300,3040.000,0.500,948.000,1.000,618.000,5.000,1.000
"07/04/06","09:10:13","AMMA06",60193.000,"cc",28302.057,6.00,2830.206,1,6,0.100,33735.000,0.200,22010.000,0.300,2858.000,0.500,979.000,1.000,611.000,5.000,0
"07/04/06","09:10:19","AMMA06",60064.000,"cc",28279.717,6.00,2827.972,1,6,0.100,33390.000,0.200,22131.000,0.300,3029.000,0.500,941.000,1.000,573.000,5.000,0
"07/04/06","09:10:25","AMMA06",60285.000,"cc",28285.807,6.00,2828.581,1,6,0.100,34097.000,0.200,21651.000,0.300,2950.000,0.500,948.000,1.000,638.000,5.000,1.000
"07/04/06","09:10:31","AMMA06",60278.000,"cc",28313.428,6.00,2831.343,1,6,0.100,33797.000,0.200,21868.000,0.300,3009.000,0.500,980.000,1.000,624.000,5.000,0
"07/04/06","09:10:37","AMMA06",60723.000,"cc",28317.106,6.00,2831.711,1,6,0.100,34155.000,0.200,21954.000,0.300,2989.000,0.500,933.000,1.000,692.000,5.000,0
"07/04/06","09:10:43","AMMA06",60294.000,"cc",28368.582,6.00,2836.858,1,6,0.100,33735.000,0.200,21977.000,0.300,3000.000,0.500,1007.000,1.000,575.000,5.000,0
"07/04/06","09:10:49","AMMA06",60680.000,"cc",28282.070,6.00,2828.207,1,6,0.100,34127.000,0.200,22120.000,0.300,2894.000,0.500,938.000,1.000,601.000,5.000,0
"07/04/06","09:10:55","AMMA06",60416.000,"cc",28290.738,6.00,2829.074,1,6,0.100,34007.000,0.200,21881.000,0.300,2928.000,0.500,1003.000,1.000,597.000,5.000,0
"07/04/06","09:11:01","AMMA06",60675.000,"cc",28321.602,6.00,2832.160,1,6,0.100,34223.000,0.200,21903.000,0.300,2962.000,0.500,1009.000,1.000,578.000,5.000,0
"07/04/06","09:11:07","AMMA06",60530.000,"cc",28286.137,6.00,2828.614,1,6,0.100,34250.000,0.200,21727.000,0.300,2952.000,0.500,992.000,1.000,609.000,5.000,0
"07/04/06","09:11:13","AMMA06",60339.000,"cc",28324.850,6.00,2832.485,1,6,0.100,34209.000,0.200,21550.000,0.300,2949.000,0.500,1022.000,1.000,609.000,5.000,0
"07/04/06","09:11:19","AMMA06",60887.000,"cc",28310.176,6.00,2831.018,1,6,0.100,34411.000,0.200,21850.000,0.300,3025.000,0.500,973.000,1.000,625.000,5.000,3.000
"07/04/06","09:11:25","AMMA06",60300.000,"cc",28328.279,6.00,2832.828,1,6,0.100,34003.000,0.200,21804.000,0.300,2923.000,0.500,953.000,1.000,617.000,5.000,0
"07/04/06","09:11:31","AMMA06",60444.000,"cc",28339.486,6.00,2833.949,1,6,0.100,34018.000,0.200,21856.000,0.300,3010.000,0.500,950.000,1.000,609.000,5.000,1.000
"07/04/06","09:11:37","AMMA06",60972.000,"cc",28303.025,6.00,2830.303,1,6,0.100,34382.000,0.200,22007.000,0.300,2985.000,0.500,996.000,1.000,601.000,5.000,1.000
"07/04/06","09:11:43","AMMA06",60808.000,"cc",28322.344,6.00,2832.235,1,6,0.100,34537.000,0.200,21695.000,0.300,2979.000,0.500,983.000,1.000,614.000,5.000,0
"07/04/06","09:11:49","AMMA06",59720.000,"cc",28249.408,6.00,2824.941,1,6,0.100,33347.000,0.200,21749.000,0.300,3098.000,0.500,896.000,1.000,630.000,5.000,0
"07/04/06","09:11:55","AMMA06",60221.000,"cc",28343.412,6.00,2834.341,1,6,0.100,33821.000,0.200,21841.000,0.300,2986.000,0.500,949.000,1.000,623.000,5.000,1.000
"07/04/06","09:12:01","AMMA06",60362.000,"cc",28376.676,6.00,2837.668,1,6,0.100,34012.000,0.200,21803.000,0.300,2968.000,0.500,943.000,1.000,635.000,5.000,1.000
"07/04/06","09:12:07","AMMA06",60184.000,"cc",28318.328,6.00,2831.833,1,6,0.100,33797.000,0.200,21748.000,0.300,3061.000,0.500,924.000,1.000,654.000,5.000,0
"07/04/06","09:12:13","AMMA06",59944.000,"cc",28308.299,6.00,2830.830,1,6,0.100,33750.000,0.200,21543.000,0.300,3054.000,0.500,1003.000,1.000,592.000,5.000,2.000
"07/04/06","09:12:19","AMMA06",60167.000,"cc",28340.389,6.00,2834.039,1,6,0.100,33975.000,0.200,21654.000,0.300,2919.000,0.500,973.000,1.000,644.000,5.000,2.000
"07/04/06","09:12:25","AMMA06",59606.000,"cc",28277.576,6.00,2827.758,1,6,0.100,33689.000,0.200,21372.000,0.300,2950.000,0.500,945.000,1.000,648.000,5.000,2.000
"07/04/06","09:12:31","AMMA06",60282.000,"cc",28316.990,6.00,2831.699,1,6,0.100,33939.000,0.200,21863.000,0.300,2906.000,0.500,956.000,1.000,617.000,5.000,1.000
"07/04/06","09:12:37","AMMA06",60312.000,"cc",28332.065,6.00,2833.207,1,6,0.100,34166.000,0.200,21715.000,0.300,2851.000,0.500,972.000,1.000,608.000,5.000,0
"07/04/06","09:12:43","AMMA06",60022.000,"cc",28305.789,6.00,2830.579,1,6,0.100,33749.000,0.200,21769.000,0.300,2903.000,0.500,988.000,1.000,612.000,5.000,1.000
"07/04/06","09:12:49","AMMA06",60053.000,"cc",28359.799,6.00,2835.980,1,6,0.100,33934.000,0.200,21560.000,0.300,2939.000,0.500,969.000,1.000,651.000,5.000,0
"07/04/06","09:12:55","AMMA06",59624.000,"cc",28371.172,6.00,2837.117,1,6,0.100,33689.000,0.200,21504.000,0.300,2876.000,0.500,939.000,1.000,615.000,5.000,1.000
"07/04/06","09:13:01","AMMA06",60153.000,"cc",28282.207,6.00,2828.221,1,6,0.100,33975.000,0.200,21768.000,0.300,2827.000,0.500,968.000,1.000,613.000,5.000,2.000
"07/04/06","09:13:07","AMMA06",60259.000,"cc",28297.523,6.00,2829.752,1,6,0.100,33714.000,0.200,22003.000,0.300,2984.000,0.500,933.000,1.000,625.000,5.000,0
"07/04/06","09:13:13","AMMA06",60004.000,"cc",28337.865,6.00,2833.787,1,6,0.100,33983.000,0.200,21434.000,0.300,2961.000,0.500,989.000,1.000,636.000,5.000,1.000
"07/04/06","09:13:19","AMMA06",60654.000,"cc",28301.572,6.00,2830.158,1,6,0.100,34268.000,0.200,21832.000,0.300,2974.000,0.500,931.000,1.000,649.000,5.000,0
"07/04/06","09:13:25","AMMA06",60718.000,"cc",28315.414,6.00,2831.542,1,6,0.100,34278.000,0.200,21818.000,0.300,3014.000,0.500,989.000,1.000,618.000,5.000,1.000
"07/04/06","09:13:31","AMMA06",60664.000,"cc",28307.010,6.00,2830.701,1,6,0.100,34135.000,0.200,22010.000,0.300,2957.000,0.500,932.000,1.000,629.000,5.000,1.000
"07/04/06","09:13:37","AMMA06",60647.000,"cc",28348.004,6.00,2834.801,1,6,0.100,34148.000,0.200,21964.000,0.300,2972.000,0.500,964.000,1.000,596.000,5.000,3.000
"07/04/06","09:13:43","AMMA06",60605.000,"cc",28362.275,6.00,2836.228,1,6,0.100,34217.000,0.200,21897.000,0.300,2856.000,0.500,976.000,1.000,657.000,5.000,2.000
"07/04/06","09:13:49","AMMA06",60748.000,"cc",28291.244,6.00,2829.125,1,6,0.100,34369.000,0.200,21796.000,0.300,2959.000,0.500,944.000,1.000,678.000,5.000,2.000
"07/04/06","09:13:55","AMMA06",62072.000,"cc",28271.356,6.00,2827.136,1,6,0.100,35421.000,0.200,22196.000,0.300,2946.000,0.500,890.000,1.000,619.000,5.000,0
"07/04/06","09:14:01","AMMA06",62693.000,"cc",28283.897,6.00,2828.390,1,6,0.100,35769.000,0.200,22367.000,0.300,2901.000,0.500,1034.000,1.000,621.000,5.000,1.000